Temp
75 79 81 82 83 84 84 83 83 83 83 83 83 83 83 83 83 83 83 83 83 84 83 84 84 84 84 83 83 83 83 83 83 83 83 83 82 82 83 83 84 90 83
77 79 81 82 83 83 83 83 83 83 83 83 83 83 83 83 83 83 83 84 83 84 84 84 84 84 84 84 83 83 83 83 83 83 84 83 83 82 83 84 85 86 83
77 80 87 82 83 83 83 83 83 83 83 83 83 84 84 84 84 84 84 84 84 84 84 84 84 84 84 84 84 84 83 83 83 82 83 88 89 83 83 82 83 83 83
79 90 92 81 83 83 83 83 83 83 83 83 83 83 84 84 84 84 84 84 84 84 84 84 84 84 84 84 84 83 83 83 83 83 83 90 93 83 83 82 82 82 82
82 89 90 82 83 83 83 83 83 83 83 83 84 84 84 84 84 85 85 85 84 84 84 85 85 85 85 85 84 83 83 83 83 86 89 88 90 85 82 82 82 82 83
89 92 84 83 83 83 83 83 84 84 84 84 84 84 84 84 84 85 85 85 85 85 85 85 85 85 85 85 85 84 83 83 83 86 90 88 88 83 82 82 82 82 82
94 93 90 82 83 83 84 84 84 84 84 84 84 84 84 84 85 85 85 85 85 85 85 85 85 85 85 85 84 84 84 84 91 86 88 90 87 82 83 82 83 81 82
90 96 90 84 83 83 84 84 84 84 84 84 84 84 84 84 85 85 85 85 86 85 85 85 85 85 85 84 83 84 84 85 91 93 87 89 81 82 83 82 82 82 81
96 96 92 92 87 84 84 84 84 84 84 84 84 84 85 85 85 85 85 86 86 86 86 85 85 85 85 84 84 83 83 85 86 91 93 87 81 82 83 82 82 81 82
96 96 93 92 93 90 90 84 84 84 84 84 84 85 85 85 85 85 85 85 86 86 85 86 86 85 85 84 84 83 83 84 85 94 93 87 81 82 83 82 82 82 81
94 96 96 96 93 91 91 88 85 84 84 84 85 85 84 85 90 90 85 85 86 85 85 85 86 86 86 85 84 84 84 83 88 87 90 80 82 83 83 83 82 82 81
92 97 98 96 95 94 96 89 90 92 93 93 89 90 79 90 90 93 89 85 85 85 85 86 86 85 85 93 94 85 80 93 95 92 89 80 82 83 83 83 82 81 82
96 98 98 96 93 94 94 93 94 95 96 96 92 91 83 92 91 76 91 92 89 87 82 82 86 93 96 98 99 95 94 95 97 92 85 81 82 83 84 83 82 81 82
94 96 98 96 93 94 96 96 97 97 98 97 96 91 91 89 94 78 83 91 93 90 90 84 88 92 83 87 92 97 99 92 94 94 85 81 82 83 84 83 82 82 82
94 96 97 95 91 92 92 95 98 97 97 99 96 93 95 85 90 86 89 86 89 87 86 89 91 90 91 88 92 92 95 96 97 89 90 81 82 83 83 83 83 82 82
95 95 97 94 91 91 91 91 93 96 98 98 98 96 92 94 92 86 88 84 86 84 80 92 91 83 84 90 90 93 95 96 93 93 90 87 82 82 83 83 83 83 82
96 96 95 93 92 89 89 90 92 96 98 97 98 94 93 92 91 89 89 86 84 84 91 88 90 85 89 92 91 95 90 90 94 92 89 89 87 82 83 83 83 82 82
96 93 94 96 93 90 90 90 93 96 97 97 98 96 92 92 91 91 92 92 85 90 95 85 92 94 89 94 92 94 94 94 94 94 95 87 87 89 84 83 83 82 81
95 92 91 92 93 90 90 91 92 93 95 97 98 97 92 92 91 91 77 80 92 89 89 94 83 90 91 92 91 94 94 93 90 96 94 92 93 84 86 82 82 82 83
95 93 91 92 92 90 91 90 93 94 94 96 97 97 92 92 92 91 89 91 93 90 83 81 88 92 91 91 95 93 93 95 95 95 94 95 94 94 87 88 85 83 83
95 92 90 89 89 90 90 89 90 91 92 94 96 95 93 93 91 90 92 91 92 87 90 89 89 87 89 90 90 90 91 93 93 95 98 95 94 88 92 94 85 84 82
94 92 89 89 88 89 90 90 92 92 95 94 95 94 93 92 91 91 90 84 91 79 88 87 87 82 91 91 87 89 83 87 92 95 95 94 93 95 93 93 92 87 81
93 91 89 88 88 88 89 91 91 92 92 93 93 94 93 92 92 91 90 91 91 90 83 87 88 87 89 89 87 86 83 74 87 91 90 92 91 93 92 91 91 90 88
95 93 91 89 88 88 88 89 86 88 88 92 92 95 94 93 92 93 91 91 89 92 84 88 90 89 86 86 89 91 87 84 74 74 89 91 91 91 90 92 91 90 90
96 94 93 89 87 88 87 87 89 87 92 94 95 91 90 89 92 94 92 90 89 90 90 86 87 86 89 89 89 89 87 90 88 83 72 79 89 92 91 91 95 89 91
98 96 94 89 86 87 88 86 87 86 88 91 91 93 94 94 93 91 93 90 88 90 91 89 88 87 86 89 90 90 89 87 87 86 85 84 83 82 93 93 92 93 93
MSLP
1014.60 1014.81 1014.78 1014.80 1014.62 1014.68 1014.75 1014.95 1015.23 1015.55 1015.77 1015.99 1016.13 1016.33 1016.38 1016.40 1016.46 1016.54 1016.70 1016.73 1016.85 1016.87 1016.94 1016.99 1017.03 1017.09 1017.16 1017.18 1017.20 1017.21 1017.23 1017.20 1017.23 1017.33 1017.39 1017.48 1017.59 1017.60 1017.62 1017.62 1017.36 1017.17 1018.11
1014.39 1014.90 1014.98 1014.99 1014.91 1014.97 1015.17 1015.34 1015.62 1015.84 1016.08 1016.31 1016.53 1016.61 1016.69 1016.73 1016.82 1016.94 1016.96 1017.00 1017.09 1017.04 1017.09 1017.21 1017.27 1017.32 1017.34 1017.38 1017.47 1017.49 1017.51 1017.47 1017.39 1017.37 1017.35 1017.51 1017.84 1017.90 1017.89 1017.65 1017.13 1017.92 1018.28
1014.67 1014.74 1014.77 1015.08 1015.16 1015.42 1015.56 1015.70 1015.93 1016.16 1016.41 1016.66 1016.77 1016.84 1016.94 1016.96 1017.05 1017.13 1017.17 1017.24 1017.25 1017.28 1017.33 1017.37 1017.42 1017.47 1017.48 1017.57 1017.61 1017.65 1017.70 1017.63 1017.42 1017.62 1017.60 1016.64 1017.54 1018.21 1018.19 1018.18 1018.18 1018.39 1018.59
1014.64 1014.11 1014.14 1015.19 1015.47 1015.62 1015.81 1016.02 1016.23 1016.49 1016.69 1016.85 1017.01 1017.05 1017.10 1017.22 1017.35 1017.32 1017.33 1017.43 1017.46 1017.53 1017.52 1017.49 1017.55 1017.61 1017.61 1017.64 1017.76 1017.83 1017.83 1017.70 1017.65 1017.78 1017.54 1016.81 1017.21 1018.46 1018.58 1018.65 1018.72 1018.85 1018.93
1014.38 1013.63 1014.29 1015.36 1015.71 1015.82 1016.07 1016.30 1016.53 1016.73 1016.92 1017.10 1017.25 1017.32 1017.37 1017.49 1017.48 1017.50 1017.54 1017.59 1017.62 1017.66 1017.71 1017.72 1017.69 1017.67 1017.68 1017.72 1017.80 1017.93 1017.91 1017.73 1017.69 1017.59 1017.16 1017.21 1017.11 1018.54 1018.91 1019.07 1019.15 1019.22 1019.20
1013.66 1013.45 1015.02 1015.52 1015.80 1016.01 1016.27 1016.53 1016.75 1016.99 1017.16 1017.29 1017.46 1017.56 1017.64 1017.68 1017.69 1017.68 1017.71 1017.72 1017.76 1017.83 1017.88 1017.84 1017.79 1017.79 1017.72 1017.71 1017.77 1017.85 1017.91 1017.76 1017.61 1017.34 1016.90 1017.54 1017.83 1018.87 1019.16 1019.26 1019.28 1019.42 1019.52
1012.75 1013.50 1014.96 1015.72 1015.96 1016.21 1016.47 1016.75 1016.99 1017.22 1017.34 1017.52 1017.61 1017.68 1017.77 1017.86 1017.90 1017.90 1017.88 1017.92 1017.97 1018.03 1018.06 1018.03 1017.99 1017.93 1017.89 1017.92 1017.95 1017.98 1017.97 1017.81 1017.15 1017.52 1017.49 1017.64 1018.56 1019.12 1019.33 1019.48 1019.58 1019.78 1019.83
1012.99 1013.45 1014.89 1015.89 1016.11 1016.43 1016.70 1016.98 1017.24 1017.39 1017.57 1017.68 1017.75 1017.83 1017.93 1017.98 1018.05 1018.06 1018.07 1018.09 1018.09 1018.14 1018.15 1018.15 1018.14 1018.09 1018.09 1018.08 1018.08 1018.04 1018.01 1017.90 1017.27 1017.00 1017.77 1018.08 1019.21 1019.38 1019.48 1019.69 1019.86 1019.99 1020.08
1012.30 1013.14 1014.52 1015.32 1016.13 1016.62 1016.92 1017.19 1017.44 1017.59 1017.72 1017.79 1017.93 1018.02 1018.07 1018.09 1018.10 1018.16 1018.24 1018.23 1018.19 1018.19 1018.20 1018.24 1018.20 1018.17 1018.16 1018.17 1018.19 1018.17 1017.97 1017.85 1017.59 1017.63 1017.46 1018.50 1019.39 1019.58 1019.66 1019.91 1020.04 1020.20 1020.28
1012.25 1013.47 1014.41 1015.00 1015.58 1016.09 1016.78 1017.30 1017.55 1017.73 1017.85 1017.96 1018.06 1018.06 1017.96 1018.00 1017.96 1018.08 1018.19 1018.32 1018.33 1018.31 1018.32 1018.26 1018.11 1018.01 1018.00 1017.97 1017.97 1017.97 1017.82 1017.78 1017.63 1017.38 1017.47 1018.89 1019.59 1019.73 1019.91 1020.15 1020.33 1020.48 1020.59
1012.18 1013.31 1013.93 1014.51 1015.13 1015.70 1016.33 1017.14 1017.60 1017.84 1017.93 1018.01 1017.94 1017.54 1017.48 1017.33 1017.57 1017.72 1018.17 1018.35 1018.39 1018.34 1018.28 1018.08 1017.72 1017.78 1017.87 1017.83 1017.53 1017.56 1017.98 1017.71 1017.34 1017.69 1018.02 1019.38 1019.70 1019.91 1020.11 1020.28 1020.46 1020.69 1020.83
1011.99 1012.69 1013.33 1013.95 1014.66 1015.32 1015.66 1016.96 1017.03 1017.16 1017.10 1017.04 1016.99 1016.49 1017.12 1016.95 1017.19 1017.06 1017.77 1018.24 1018.30 1018.24 1017.91 1017.59 1017.62 1017.65 1017.91 1016.99 1016.89 1017.65 1018.02 1017.11 1016.86 1017.40 1018.52 1019.49 1019.71 1019.88 1020.05 1020.37 1020.57 1020.74 1020.89
1011.71 1012.19 1012.86 1013.80 1014.62 1015.02 1015.09 1016.31 1016.25 1016.28 1016.13 1016.33 1016.63 1016.18 1016.52 1016.55 1016.99 1017.82 1017.55 1017.59 1017.67 1017.71 1017.46 1018.03 1017.58 1016.78 1016.25 1016.20 1015.96 1016.40 1016.74 1016.58 1016.34 1017.53 1018.89 1019.52 1019.80 1019.89 1019.99 1020.36 1020.65 1020.82 1020.96
1011.59 1012.10 1012.81 1013.64 1014.59 1014.90 1015.00 1015.57 1015.45 1015.47 1015.63 1015.85 1016.40 1016.97 1016.66 1017.05 1016.45 1017.77 1017.43 1017.13 1017.08 1017.04 1016.84 1017.61 1017.09 1016.98 1017.80 1017.44 1017.05 1016.40 1016.21 1016.57 1016.28 1017.15 1018.79 1019.45 1019.78 1019.91 1020.02 1020.31 1020.63 1020.86 1020.98
1011.68 1012.03 1012.80 1013.73 1014.74 1015.02 1015.30 1015.30 1014.95 1015.28 1015.65 1015.49 1016.21 1016.89 1016.28 1016.80 1016.73 1017.10 1017.07 1017.11 1017.26 1017.32 1017.36 1017.20 1017.00 1017.31 1017.47 1017.73 1017.29 1016.93 1016.54 1016.75 1016.55 1017.40 1018.35 1019.30 1019.76 1019.86 1019.99 1020.11 1020.40 1020.64 1020.77
1011.11 1011.81 1012.69 1013.83 1014.80 1015.27 1015.63 1015.59 1015.52 1015.54 1015.33 1015.62 1015.72 1016.23 1017.03 1016.58 1016.77 1016.86 1017.01 1017.26 1017.34 1017.79 1018.06 1017.41 1017.51 1018.00 1017.73 1017.42 1017.46 1017.20 1016.59 1016.69 1017.21 1017.03 1017.90 1018.79 1019.34 1019.63 1019.84 1020.05 1020.23 1020.41 1020.56
1010.71 1011.59 1012.44 1013.59 1014.48 1015.36 1015.71 1015.93 1015.91 1015.50 1015.40 1015.47 1015.70 1016.38 1016.94 1017.07 1017.05 1017.42 1017.13 1017.28 1017.29 1017.58 1017.57 1017.80 1017.62 1017.74 1017.42 1017.10 1017.40 1017.05 1017.34 1017.43 1017.17 1017.28 1017.49 1018.16 1019.04 1019.49 1019.64 1019.92 1020.18 1020.34 1020.53
1010.46 1011.52 1012.49 1013.20 1013.98 1014.96 1015.32 1015.62 1015.65 1015.34 1015.37 1015.33 1015.54 1016.09 1016.88 1017.05 1017.18 1017.09 1017.02 1016.79 1017.06 1017.27 1017.03 1017.38 1017.39 1017.08 1017.17 1017.10 1017.26 1016.82 1016.83 1017.26 1017.28 1017.33 1017.22 1018.19 1018.42 1018.75 1019.62 1019.61 1020.05 1020.43 1020.78
1010.28 1011.35 1012.37 1012.97 1013.45 1014.31 1014.86 1015.09 1015.42 1015.27 1015.43 1015.28 1015.43 1015.69 1016.49 1016.83 1017.16 1017.05 1017.70 1017.73 1016.92 1017.02 1017.05 1016.97 1017.47 1017.24 1017.15 1017.03 1017.28 1016.83 1017.16 1017.38 1017.41 1017.07 1017.40 1017.54 1017.87 1018.72 1019.05 1019.85 1020.10 1020.52 1020.60
1009.98 1011.03 1012.08 1012.66 1013.14 1013.91 1014.52 1014.96 1014.88 1014.88 1015.15 1015.21 1015.26 1015.39 1016.01 1016.54 1016.86 1016.93 1016.61 1016.74 1016.91 1017.16 1017.39 1017.67 1017.65 1017.39 1017.26 1017.15 1016.61 1016.84 1016.99 1017.03 1016.81 1017.03 1017.29 1017.33 1017.84 1018.14 1018.92 1019.07 1019.84 1020.15 1020.71
1009.40 1010.45 1011.43 1012.23 1012.81 1013.52 1013.99 1014.26 1014.31 1014.40 1014.71 1015.02 1014.97 1015.28 1015.67 1016.21 1016.50 1016.72 1016.44 1016.59 1016.73 1017.14 1017.18 1017.60 1017.58 1017.65 1017.18 1017.48 1017.11 1017.23 1017.31 1017.49 1017.40 1017.03 1016.67 1017.03 1017.58 1018.41 1018.24 1018.43 1019.15 1020.07 1020.46
1008.57 1009.78 1010.82 1011.70 1012.40 1013.14 1013.53 1013.71 1013.86 1014.04 1014.15 1014.61 1014.77 1015.02 1015.58 1015.94 1016.15 1016.25 1016.41 1016.73 1016.59 1017.45 1017.26 1017.72 1017.67 1017.46 1017.08 1017.42 1017.02 1016.66 1016.83 1017.15 1017.08 1016.95 1017.35 1017.62 1017.84 1017.82 1018.45 1018.70 1018.96 1019.59 1020.14
1007.72 1008.92 1010.07 1011.11 1011.86 1012.59 1012.89 1013.44 1013.77 1013.89 1014.10 1014.16 1014.41 1014.75 1015.15 1015.57 1015.69 1015.88 1016.23 1016.30 1016.42 1016.71 1017.21 1017.57 1017.71 1017.43 1016.97 1017.63 1017.50 1017.15 1016.55 1016.62 1017.00 1017.65 1018.08 1017.88 1018.32 1018.22 1018.67 1019.12 1019.32 1019.59 1019.81
1006.65 1008.14 1009.28 1010.47 1011.32 1012.05 1012.73 1012.60 1013.03 1013.21 1013.27 1013.41 1013.86 1014.01 1014.24 1014.79 1015.14 1015.37 1015.99 1016.19 1016.40 1016.41 1016.83 1017.26 1017.41 1017.34 1017.53 1017.29 1017.68 1017.35 1017.76 1017.76 1017.54 1017.64 1017.38 1017.65 1018.38 1018.23 1018.60 1018.47 1019.00 1019.53 1019.68
1005.73 1007.11 1008.39 1009.61 1010.61 1011.25 1012.00 1012.22 1012.46 1012.91 1012.84 1013.08 1013.16 1013.49 1014.00 1014.36 1014.80 1014.97 1015.47 1015.85 1016.20 1016.41 1016.28 1017.11 1017.37 1017.64 1017.46 1017.20 1017.14 1017.23 1017.59 1017.47 1017.62 1017.45 1017.66 1017.62 1017.69 1017.73 1018.34 1018.77 1018.36 1018.95 1019.28
1004.81 1006.18 1007.49 1008.81 1009.87 1010.71 1011.22 1011.90 1011.81 1012.10 1012.40 1012.41 1012.73 1012.79 1013.24 1013.70 1014.23 1014.63 1014.78 1015.26 1016.01 1016.10 1016.08 1016.60 1017.04 1017.47 1017.61 1017.35 1017.07 1017.03 1017.10 1017.25 1017.07 1017.15 1016.83 1017.13 1017.30 1017.87 1017.65 1017.98 1018.28 1018.36 1018.46
Wind_Speed
7 5 6 6 10 12 14 14 14 14 13 12 13 12 13 13 14 14 13 13 11 11 11 10 10 10 10 10 10 9 8 9 10 10 11 11 9 7 3 1 6 16 11
8 6 7 9 11 13 13 14 14 14 13 13 13 12 12 13 12 12 11 12 10 10 10 10 9 8 8 8 8 9 8 7 8 8 11 12 9 6 6 6 15 14 12
10 8 13 10 12 14 14 14 14 14 13 12 12 12 11 12 12 11 11 11 10 9 10 9 7 7 7 7 7 9 8 7 6 5 6 3 11 6 8 11 14 13 12
13 15 15 9 12 14 14 14 13 13 13 12 11 10 11 12 10 10 10 10 9 9 9 8 7 6 6 5 6 7 7 4 1 2 4 1 12 8 7 11 12 11 11
17 13 17 13 13 14 14 14 13 13 12 11 11 10 11 10 8 9 10 9 9 9 8 8 7 6 5 5 5 6 6 2 4 2 4 6 3 9 6 9 10 8 7
18 17 17 15 15 15 14 13 13 12 11 10 10 10 10 8 8 10 9 8 8 8 8 8 7 7 7 7 5 6 5 4 7 9 9 9 15 11 8 8 12 11 11
18 18 18 16 16 15 14 13 12 12 11 10 9 9 9 8 8 8 8 8 8 8 8 7 7 8 8 7 7 6 6 5 5 12 6 10 11 9 9 10 10 10 9
17 20 19 16 16 15 14 13 11 11 10 9 9 8 9 8 7 7 8 7 7 7 7 7 7 7 8 8 8 6 4 5 2 5 9 11 10 10 10 10 10 10 9
19 20 17 17 15 15 13 12 11 10 10 9 8 8 7 7 7 6 7 6 6 6 5 5 4 4 6 7 7 6 3 5 1 4 9 9 10 8 10 10 10 9 10
17 19 18 17 15 14 13 12 11 9 9 8 7 7 8 8 9 8 7 7 5 4 3 4 2 4 6 10 9 9 9 9 8 6 8 9 11 9 9 9 9 8 8
15 19 18 17 15 13 12 11 10 9 8 7 8 11 9 3 7 13 10 6 4 1 1 2 6 7 8 9 14 13 10 5 2 5 8 12 10 8 10 9 9 9 7
17 20 18 17 15 14 12 11 10 10 10 10 8 9 10 6 7 5 10 7 6 5 7 8 6 8 11 8 9 10 6 5 6 9 9 11 9 8 10 10 10 9 8
19 16 17 17 14 13 10 9 6 6 6 4 2 3 8 6 3 2 4 6 5 10 4 7 6 4 9 9 7 10 9 6 6 10 11 10 8 8 8 10 9 8 8
16 17 17 17 13 13 8 8 9 7 5 5 7 3 1 3 1 9 5 6 3 2 3 7 4 10 9 9 7 6 3 7 3 9 10 10 7 6 7 9 9 9 8
20 18 17 15 12 9 7 8 6 6 5 6 6 7 6 4 3 7 3 2 3 5 3 3 4 1 5 2 5 9 5 3 5 7 7 13 9 7 8 9 10 10 9
20 19 17 16 14 11 9 7 6 6 7 5 6 7 4 5 2 2 1 4 2 6 3 3 3 3 8 2 2 8 4 5 2 4 10 9 13 10 8 9 10 11 10
18 18 18 17 17 14 13 9 8 7 8 7 5 6 5 5 4 3 2 4 2 3 1 2 0 3 6 7 6 2 4 4 3 3 8 9 10 11 11 8 9 10 11
18 18 17 15 18 16 13 10 9 8 8 6 6 7 7 6 3 3 4 3 3 2 1 3 1 2 5 1 4 4 6 3 4 4 4 6 7 8 9 10 8 8 7
19 18 18 17 17 17 13 10 11 9 8 7 7 7 10 8 6 6 4 7 2 3 2 2 2 1 3 4 6 4 7 4 3 6 3 8 8 6 5 9 10 7 7
20 19 18 16 14 14 11 9 10 9 9 8 8 8 11 8 8 6 3 6 2 1 1 5 6 4 5 4 6 4 4 2 1 6 7 7 4 5 10 9 8 7 6
21 19 18 17 15 12 12 12 10 10 9 9 8 8 9 8 9 7 5 6 5 4 3 3 5 5 3 3 5 6 5 2 3 3 4 5 5 10 1 6 5 5 5
21 20 18 17 15 13 11 9 9 9 9 9 9 8 9 10 9 8 7 1 5 4 6 2 3 6 2 3 4 6 6 6 6 2 5 5 5 6 6 2 6 8 6
23 20 19 18 16 15 14 10 8 8 7 9 9 9 10 11 11 9 8 7 6 7 7 7 5 5 2 3 7 5 2 3 7 4 2 7 2 5 5 4 7 3 8
22 22 19 19 17 16 16 13 13 11 11 10 10 10 11 12 11 10 9 8 7 8 9 5 5 4 4 6 4 4 5 6 5 2 5 6 4 3 4 4 8 7 4
23 22 20 19 18 17 17 15 13 13 11 10 10 11 10 10 11 12 11 9 8 8 6 7 4 5 5 6 5 4 1 2 1 2 3 3 7 6 8 3 1 7 6
22 22 20 19 19 18 17 19 15 16 13 12 11 10 10 10 11 11 11 9 9 8 6 8 7 7 7 4 4 3 4 5 6 6 5 8 7 4 5 6 5 5 6
Wind_Direction
190 194 167 127 113 125 126 122 122 118 113 112 101 95 88 81 74 74 79 80 86 91 92 95 88 86 83 78 74 70 72 79 89 96 106 100 95 100 87 119 178 104 106
148 198 188 146 135 130 129 124 121 117 115 107 102 95 90 87 80 78 76 87 91 95 99 91 91 89 88 83 80 82 85 87 99 135 129 111 93 86 52 38 73 102 107
166 181 163 150 143 135 129 124 124 119 112 108 102 98 98 91 82 84 87 84 82 85 86 91 93 95 97 92 88 85 96 99 144 142 174 118 95 84 71 81 89 99 108
167 187 148 142 141 131 131 128 124 120 116 108 105 101 89 84 86 85 92 89 88 86 86 95 99 103 105 103 97 95 93 106 125 79 246 133 96 92 91 85 92 109 105
181 189 128 148 141 133 133 128 125 122 113 109 107 98 91 89 85 73 82 84 82 84 90 91 93 96 97 94 108 102 101 166 230 159 53 27 80 102 102 119 127 116 95
175 156 136 151 146 140 136 131 128 125 121 115 110 108 104 95 82 76 79 83 83 81 81 80 72 75 73 88 98 136 138 230 268 187 99 47 70 105 110 106 92 95 97
143 136 147 155 144 140 138 135 133 132 126 121 118 115 109 101 89 79 81 81 80 80 77 79 77 72 69 81 79 113 164 232 300 116 106 99 95 96 102 104 106 101 110
169 146 137 144 140 140 141 138 137 138 132 131 126 120 111 106 95 83 79 79 84 81 82 79 75 78 85 93 92 113 173 266 259 69 113 87 103 112 114 111 119 115 116
158 142 148 147 144 144 142 140 145 144 142 139 130 126 123 116 107 97 94 87 90 92 90 87 87 103 119 108 116 131 199 269 319 106 122 115 111 122 107 105 111 114 119
163 141 152 150 157 159 153 148 150 150 149 145 144 154 163 160 156 152 146 111 101 90 91 96 136 181 170 149 149 184 210 225 233 146 110 103 126 138 124 117 116 109 113
153 159 162 159 158 154 152 149 155 157 159 163 175 207 193 233 174 154 94 119 144 129 140 173 216 191 183 193 180 191 206 242 313 107 87 120 135 150 138 138 129 125 119
159 166 166 161 159 160 161 149 171 169 181 195 188 210 166 196 131 92 124 159 172 209 217 213 345 287 222 188 181 181 236 243 133 118 103 123 142 158 155 152 143 143 139
167 171 165 158 163 170 150 170 179 175 174 174 208 244 222 88 181 203 161 178 192 205 242 60 243 292 21 12 16 152 187 199 147 107 119 137 146 173 158 159 162 159 149
181 174 172 158 170 180 159 182 185 182 191 185 180 231 235 33 316 91 231 187 202 182 110 148 242 67 25 341 335 29 90 24 35 106 127 145 157 169 173 173 180 175 170
184 177 174 163 169 179 202 192 208 205 203 187 147 175 276 170 125 74 265 81 128 103 321 15 57 20 103 253 297 336 104 52 5 113 127 151 174 177 185 176 186 187 188
179 178 173 172 173 196 203 222 225 204 181 238 176 157 208 279 135 201 137 184 143 91 123 2 354 120 323 93 91 291 56 109 73 57 135 152 171 176 175 192 194 191 196
177 178 175 180 178 193 200 204 216 205 231 194 219 143 201 218 156 2 230 25 304 105 187 209 25 251 215 139 177 144 91 80 158 169 108 147 154 178 170 181 199 208 206
180 179 186 190 180 187 194 192 215 227 212 216 197 169 195 203 251 191 233 231 40 50 226 28 8 288 160 230 43 286 96 88 130 177 119 73 144 132 173 165 180 201 214
186 180 190 193 187 186 197 202 210 213 225 214 211 196 171 200 206 250 189 355 195 208 192 217 303 236 114 169 186 177 119 137 212 108 90 201 139 141 121 160 154 172 188
184 182 190 194 198 186 190 209 204 216 208 224 210 209 157 202 206 225 213 180 253 281 142 64 339 32 339 16 340 68 108 207 174 124 163 153 136 167 146 160 157 145 188
184 188 189 195 191 188 197 198 209 210 199 209 217 206 191 215 200 210 249 181 230 164 105 211 202 174 244 108 200 160 89 160 232 193 78 95 128 135 13 92 132 152 137
189 187 186 194 189 195 199 206 210 211 207 206 209 193 210 208 216 224 229 189 209 167 146 204 285 289 110 183 266 175 160 157 177 144 74 75 359 113 121 73 85 137 165
190 186 187 190 191 192 211 199 204 214 235 198 212 202 200 216 217 218 206 238 159 276 147 174 203 275 131 179 308 326 11 180 150 149 165 105 234 109 107 103 77 72 132
193 188 188 186 194 192 203 200 203 207 205 213 208 209 199 201 217 205 211 201 202 215 128 161 203 279 274 176 187 253 4 342 55 202 165 137 221 186 121 209 132 132 169
188 188 190 185 191 195 191 224 194 214 210 207 215 212 206 174 207 215 190 204 202 227 147 166 201 225 177 286 199 166 178 257 279 317 220 169 191 203 155 233 192 149 193
190 191 186 184 191 197 192 204 210 198 226 210 204 204 203 213 190 217 209 191 215 218 214 183 198 195 252 216 284 184 187 202 177 224 220 177 190 199 197 178 184 237 189